Location: C.E.K. Mees Observatory
(42.7003°N, 77.4088°W)
Time: 16:04:03
(UTC-05:00)

Envisat - Pass Details

Date: 21 November 2019
Orbit: 764 x 766 km, 98.1° (Epoch: 09 December)

Event Time Altitude Azimuth Distance (km) Brightness Sun altitude
Rises 17:41:14 0° 152° (SSE) 3,218 6.1 -10.9°
Reaches altitude 10° 17:43:34 10° 148° (SSE) 2,296 5.3 -11.3°
Maximum altitude 17:48:30 54° 72° (ENE) 924 3.1 -12.2°
Drops below altitude 10° 17:53:27 10° 356° (N) 2,310 5.4 -13.0°
Sets 17:55:48 0° 352° (N) 3,240 6.2 -13.5°
